EN

Hourly Weather Kzyl-Yar

Today, 30 July, Friday

Time Temperature Precipitation Wind Pressure Humidity
00:00 +19°C° 0 mm 2 mps 746 mmHg 70%
01:00 +19°C° 0 mm 3 mps 746 mmHg 68%
02:00 +20°C° 0.1 mm 4 mps 745 mmHg 67%
03:00 +20°C° 0.1 mm 4 mps 745 mmHg 65%
04:00 +20°C° 0 mm 4 mps 744 mmHg 66%
05:00 +20°C° 0.1 mm 4 mps 744 mmHg 67%
06:00 +21°C° 0.1 mm 4 mps 744 mmHg 68%
07:00 +21°C° 0.1 mm 4 mps 744 mmHg 68%
08:00 +23°C° 0 mm 5 mps 744 mmHg 65%
09:00 +24°C° 0 mm 6 mps 744 mmHg 62%
10:00 +27°C° 0 mm 7 mps 744 mmHg 59%
11:00 +27°C° 0.1 mm 7 mps 744 mmHg 58%
12:00 +28°C° 0.1 mm 7 mps 744 mmHg 56%
13:00 +28°C° 0.1 mm 7 mps 744 mmHg 55%
14:00 +28°C° 0.1 mm 7 mps 744 mmHg 54%
15:00 +28°C° 0.1 mm 7 mps 744 mmHg 53%
16:00 +28°C° 0.1 mm 6 mps 744 mmHg 52%
17:00 +28°C° 0 mm 5 mps 745 mmHg 52%
18:00 +28°C° 0 mm 5 mps 745 mmHg 51%
19:00 +28°C° 0 mm 4 mps 745 mmHg 51%
20:00 +26°C° 0 mm 3 mps 745 mmHg 57%
21:00 +25°C° 0 mm 2 mps 745 mmHg 62%
22:00 +23°C° 0 mm 1 mps 745 mmHg 67%
23:00 +22°C° 0 mm 1 mps 745 mmHg 70%

Tomorrow, 31 July, Saturday

Time Temperature Precipitation Wind Pressure Humidity
00:00 +22°C° 0 mm 1 mps 745 mmHg 72%
01:00 +20°C° 0 mm 2 mps 745 mmHg 75%
02:00 +20°C° 0 mm 2 mps 745 mmHg 74%
03:00 +20°C° 0 mm 2 mps 745 mmHg 74%
04:00 +20°C° 0 mm 2 mps 745 mmHg 73%
05:00 +21°C° 0 mm 2 mps 745 mmHg 72%
06:00 +21°C° 0 mm 3 mps 745 mmHg 71%
07:00 +22°C° 0 mm 3 mps 745 mmHg 69%
08:00 +25°C° 0.2 mm 4 mps 745 mmHg 65%
09:00 +26°C° 0.2 mm 4 mps 745 mmHg 61%
10:00 +28°C° 0.2 mm 5 mps 744 mmHg 57%
11:00 +29°C° 0 mm 6 mps 744 mmHg 51%
12:00 +32°C° 0 mm 6 mps 744 mmHg 46%
13:00 +34°C° 0 mm 6 mps 744 mmHg 40%
14:00 +33°C° 0.1 mm 6 mps 744 mmHg 41%
15:00 +33°C° 0.1 mm 6 mps 744 mmHg 42%
16:00 +32°C° 0.1 mm 5 mps 744 mmHg 43%
17:00 +32°C° 0 mm 6 mps 744 mmHg 46%
18:00 +30°C° 0 mm 6 mps 744 mmHg 49%
19:00 +29°C° 0 mm 6 mps 744 mmHg 51%
20:00 +27°C° 0.4 mm 5 mps 745 mmHg 64%
21:00 +23°C° 0.4 mm 4 mps 745 mmHg 77%
22:00 +21°C° 0.4 mm 3 mps 746 mmHg 90%
23:00 +20°C° 0.2 mm 3 mps 746 mmHg 91%

Day after tomorrow, 1 August, Sunday

Time Temperature Precipitation Wind Pressure Humidity
00:00 +20°C° 0.2 mm 2 mps 746 mmHg 91%
01:00 +19°C° 0.2 mm 2 mps 746 mmHg 92%
02:00 +19°C° 0 mm 2 mps 746 mmHg 92%
03:00 +18°C° 0 mm 2 mps 747 mmHg 92%
04:00 +18°C° 0 mm 3 mps 747 mmHg 92%
05:00 +19°C° 0 mm 3 mps 747 mmHg 87%
06:00 +20°C° 0 mm 3 mps 748 mmHg 82%
07:00 +20°C° 0 mm 3 mps 748 mmHg 76%
08:00 +23°C° 0 mm 4 mps 748 mmHg 63%
09:00 +26°C° 0 mm 4 mps 748 mmHg 50%
10:00 +29°C° 0 mm 5 mps 748 mmHg 36%
11:00 +30°C° 0 mm 6 mps 748 mmHg 33%
12:00 +32°C° 0 mm 6 mps 748 mmHg 30%
13:00 +33°C° 0 mm 6 mps 748 mmHg 27%
14:00 +33°C° 0 mm 6 mps 748 mmHg 27%
15:00 +33°C° 0 mm 6 mps 748 mmHg 27%
16:00 +33°C° 0 mm 6 mps 748 mmHg 27%
17:00 +32°C° 0 mm 6 mps 748 mmHg 30%
18:00 +32°C° 0 mm 5 mps 748 mmHg 33%
19:00 +30°C° 0 mm 5 mps 749 mmHg 35%
20:00 +27°C° 0 mm 4 mps 749 mmHg 42%
21:00 +25°C° 0 mm 3 mps 749 mmHg 50%
22:00 +23°C° 0 mm 2 mps 750 mmHg 57%
23:00 +21°C° 0 mm 2 mps 750 mmHg 59%

2 August, Monday

Time Temperature Precipitation Wind Pressure Humidity
00:00 +21°C° 0 mm 1 mps 750 mmHg 62%
01:00 +21°C° 0 mm 1 mps 750 mmHg 64%
02:00 +21°C° 0 mm 1 mps 750 mmHg 66%
03:00 +20°C° 0 mm 1 mps 750 mmHg 68%
04:00 +20°C° 0 mm 1 mps 750 mmHg 70%
05:00 +21°C° 0 mm 1 mps 751 mmHg 65%
06:00 +23°C° 0 mm 1 mps 751 mmHg 60%
07:00 +24°C° 0 mm 1 mps 751 mmHg 56%
08:00 +26°C° 0 mm 2 mps 751 mmHg 49%
09:00 +28°C° 0 mm 3 mps 751 mmHg 43%
10:00 +30°C° 0 mm 3 mps 751 mmHg 37%
11:00 +33°C° 0 mm 3 mps 751 mmHg 34%
12:00 +34°C° 0 mm 3 mps 751 mmHg 30%
13:00 +35°C° 0 mm 3 mps 750 mmHg 27%
14:00 +35°C° 0 mm 3 mps 750 mmHg 25%
15:00 +36°C° 0 mm 4 mps 750 mmHg 24%
16:00 +36°C° 0 mm 4 mps 750 mmHg 23%
17:00 +35°C° 0 mm 3 mps 750 mmHg 24%
18:00 +34°C° 0 mm 3 mps 750 mmHg 26%
19:00 +32°C° 0 mm 2 mps 749 mmHg 28%
20:00 +30°C° 0 mm 2 mps 749 mmHg 30%
21:00 +28°C° 0 mm 2 mps 749 mmHg 33%
22:00 +26°C° 0 mm 2 mps 749 mmHg 36%
23:00 +25°C° 0 mm 2 mps 749 mmHg 38%

3 August, Tuesday

Time Temperature Precipitation Wind Pressure Humidity
00:00 +24°C° 0 mm 2 mps 749 mmHg 40%
01:00 +24°C° 0 mm 2 mps 750 mmHg 42%
02:00 +23°C° 0 mm 2 mps 749 mmHg 43%
03:00 +23°C° 0 mm 2 mps 749 mmHg 44%
04:00 +23°C° 0 mm 2 mps 749 mmHg 46%
05:00 +24°C° 0 mm 2 mps 749 mmHg 44%
06:00 +25°C° 0 mm 2 mps 750 mmHg 42%
07:00 +27°C° 0 mm 3 mps 750 mmHg 40%
08:00 +30°C° 0 mm 3 mps 750 mmHg 36%
09:00 +33°C° 0 mm 4 mps 749 mmHg 32%
10:00 +36°C° 0 mm 5 mps 749 mmHg 28%
11:00 +37°C° 0 mm 5 mps 749 mmHg 24%
12:00 +40°C° 0 mm 5 mps 749 mmHg 21%
13:00 +41°C° 0 mm 5 mps 749 mmHg 18%
14:00 +40°C° 0 mm 5 mps 748 mmHg 19%
15:00 +40°C° 0 mm 5 mps 748 mmHg 19%
16:00 +38°C° 0 mm 4 mps 748 mmHg 20%
17:00 +37°C° 0 mm 4 mps 748 mmHg 22%
18:00 +36°C° 0 mm 4 mps 748 mmHg 23%
19:00 +35°C° 0 mm 3 mps 748 mmHg 25%
20:00 +34°C° 0 mm 3 mps 748 mmHg 26%
21:00 +31°C° 0 mm 3 mps 748 mmHg 27%
22:00 +30°C° 0 mm 3 mps 748 mmHg 29%
23:00 +29°C° 0 mm 3 mps 748 mmHg 31%

4 August, Wednesday

Time Temperature Precipitation Wind Pressure Humidity
00:00 +28°C° 0 mm 3 mps 748 mmHg 33%
01:00 +27°C° 0 mm 3 mps 748 mmHg 35%
02:00 +27°C° 0 mm 3 mps 748 mmHg 37%
03:00 +26°C° 0 mm 3 mps 748 mmHg 38%
04:00 +26°C° 0 mm 3 mps 748 mmHg 39%
05:00 +27°C° 0 mm 2 mps 748 mmHg 37%
06:00 +28°C° 0 mm 2 mps 748 mmHg 35%
07:00 +29°C° 0 mm 2 mps 748 mmHg 33%
08:00 +33°C° 0 mm 3 mps 748 mmHg 28%
09:00 +35°C° 0 mm 4 mps 748 mmHg 24%
10:00 +39°C° 0 mm 5 mps 748 mmHg 20%
11:00 +40°C° 0 mm 5 mps 748 mmHg 18%
12:00 +41°C° 0 mm 5 mps 748 mmHg 16%
13:00 +42°C° 0 mm 5 mps 748 mmHg 15%
14:00 +41°C° 0 mm 5 mps 747 mmHg 16%
15:00 +41°C° 0 mm 5 mps 747 mmHg 17%
16:00 +40°C° 0 mm 5 mps 747 mmHg 18%
17:00 +36°C° 0.2 mm 4 mps 748 mmHg 28%
18:00 +31°C° 0.2 mm 3 mps 748 mmHg 39%
19:00 +28°C° 0.2 mm 2 mps 749 mmHg 50%
20:00 +27°C° 0 mm 2 mps 748 mmHg 53%
21:00 +25°C° 0 mm 3 mps 748 mmHg 56%
22:00 +24°C° 0 mm 3 mps 748 mmHg 60%
23:00 +24°C° 0 mm 2 mps 748 mmHg 61%
Show more